Regional Weather Roundup
Issued by NWS

Home | Current Version | Previous Version | Graphics & Text | Print | Product List | Glossary On
Versions: 1 2 3 4 5 6 7 8 9 10 11 12 13 14 15 16 17 18 19 20 21 22 23 24 25 26 27 28 29 30 31 32 33 34 35 36 37 38 39 40 41 42 43 44 45 46 47 48 49 50
000
ASUS43 KMKX 301500
RWRWI

WISCONSIN REGIONAL WEATHER ROUNDUP
NATIONAL WEATHER SERVICE MILWAUKEE/SULLIVAN WI
1000 AM CDT SUN AUG 30 2015

NOTE: "FAIR" INDICATES FEW OR NO CLOUDS BELOW 12,000 FEET WITH NO
SIGNIFICANT WEATHER AND/OR OBSTRUCTIONS TO VISIBILITY.

WIZ001-002-006>008-014>016-023>028-301600-
NORTHWEST WISCONSIN

CITY           SKY/WX    TMP DP  RH WIND       PRES   REMARKS
SUPERIOR ARPT  MOSUNNY   69  63  81 SW13      29.94S
ASHLAND        SUNNY     71  64  78 SW14      29.95F
HAYWARD        PTSUNNY   67  61  81 S10       30.00F
SIREN          PTSUNNY   67  61  82 S10       29.99F
CUMBERLAND     CLOUDY    61  61 100 S8        30.02S
RICE LAKE      CLOUDY    62  61  95 S7        30.03F
CHETEK         CLOUDY   N/A N/A N/A S6        30.04S
LADYSMITH      CLOUDY    64  62  94 S9        30.05S
EAU CLAIRE     PTSUNNY   66  61  84 SW10      30.03S
MENOMONIE      CLOUDY    63  63  99 S6        30.04S
NEW RICHMOND   CLOUDY    66  63  88 S10       30.01F
OSCEOLA        CLOUDY    65  65 100 S6        30.03S
$$

WIZ003>005-009-010-017-018-301600-
NORTH CENTRAL WISCONSIN

CITY           SKY/WX    TMP DP  RH WIND       PRES   REMARKS
MANITOWISH WTR CLOUDY    62  62 100 SW7G16    30.04S FOG
ARBOR VITAE    CLOUDY    62  60  93 SW7       30.05R FOG
WOODRUFF       CLOUDY    62  60  93 SW7       30.05R FOG
RHINELANDER    CLOUDY    62  59  90 SW6       30.07S
EAGLE RIVER    CLOUDY    63  60  92 SW7       30.04F
LAND O LAKES   PTSUNNY   67  60  78 S6        30.05R
PHILLIPS       CLOUDY    62  61  96 S6        30.04S
TOMAHAWK       CLOUDY    60  59  97 CALM      30.06S
MEDFORD        CLOUDY    62  62 100 SW7       30.07R
MERRILL        SUNNY     61  61 100 SW7       30.07S
$$

WIZ029-030-035-036-043>047-301600-
CENTRAL WISCONSIN

CITY           SKY/WX    TMP DP  RH WIND       PRES   REMARKS
WAUSAU         PTSUNNY   60  59  96 SW6       30.06S
MOSINEE        MOSUNNY   61  61 100 SW7       30.09R
MARSHFIELD     MOSUNNY   66  60  81 SW10      30.07S
STEVENS POINT  SUNNY     60  59  95 SW5       30.08S
WAUPACA        CLOUDY    63  62  96 S3        30.08S FOG
WAUTOMA        FOG       63  63 100 CALM      30.09S VSB 1/2
WISC RAPIDS    SUNNY     67  60  78 SW8       30.09R
CAMP DOUGLAS   NOT AVBL
$$

WIZ011>013-019>022-031-037>040-048>050-301600-
NORTHEAST WISCONSIN

CITY           SKY/WX    TMP DP  RH WIND       PRES   REMARKS
ANTIGO         MOSUNNY   60  60 100 SW7       30.08R
SHAWANO        MOSUNNY   61  60  96 CALM      30.07S FOG
OCONTO         SUNNY     62  62 100 SW3       30.05F
STURGEON BAY   SUNNY     64  61  88 SW5       30.09S
GREEN BAY      MOSUNNY   64  62  93 S3        30.08R FOG
MANITOWOC      CLOUDY    63  63 100 MISG      30.09S FOG
APPLETON       PTSUNNY   66  63  88 CALM      30.07S
CLINTONVILLE   MOSUNNY   61  61 100 S5        30.07R
OSHKOSH        PTSUNNY   65  62  90 SE6       30.08S FOG
$$

WIZ032>034-041-042-053>061-301600-
SOUTHWEST WISCONSIN

CITY           SKY/WX    TMP DP  RH WIND       PRES   REMARKS
LA CROSSE      CLOUDY    63  62  97 S8        30.06S FOG
SPARTA         SUNNY     62  59  90 CALM      30.08S
VIROQUA        MOSUNNY   64  63  94 S7        30.09R
BOSCOBEL       PTSUNNY   64  62  93 CALM      30.09R
PRAIRIE DU CHI CLOUDY    62  61  96 CALM      30.08S
PLATTEVILLE    SUNNY     67  62  85 S3        30.10R
$$

WIZ056-057-062-063-064-067-068-301600-
SOUTH CENTRAL WISCONSIN

CITY           SKY/WX    TMP DP  RH WIND       PRES   REMARKS
REEDSBURG      SUNNY     64  62  93 CALM      30.08S
BARABOO/DELLS  SUNNY     64  61  88 CALM      30.09S
LONE ROCK      MOSUNNY   65  62  90 CALM      30.09S
MINERAL POINT  SUNNY     68  61  77 SE3       30.09S
MADISON        MOSUNNY   68  59  73 S6        30.09R
MIDDLETON      PTSUNNY   69  59  70 E3        30.09S
WATERTOWN      CLOUDY    67  63  89 CALM      30.09R
MONROE         CLOUDY    64  59  82 CALM      30.10R
JANESVILLE     CLOUDY    66  64  94 E6        30.09R
$$

WIZ051-052-058>065-066-070>072-301600-
SOUTHEAST WISCONSIN

CITY           SKY/WX    TMP DP  RH WIND       PRES   REMARKS
MILWAUKEE      CLOUDY    64  62  93 CALM      30.09R FOG
WAUKESHA       CLOUDY    64  61  88 CALM      30.10S FOG
MILWAUKEE/TIMM CLOUDY    64  61  88 CALM      30.10R FOG
RACINE         CLOUDY    66  63  90 N6        30.11R FOG
BURLINGTON     CLOUDY    65  61  86 NE3       30.09S
KENOSHA        CLOUDY    66  63  90 N3        30.10R FOG
FOND DU LAC    FOG       65  62  90 SE3       30.09S VSB 3/4
SHEBOYGAN      CLOUDY    62  62 100 CALM      30.09S FOG
WEST BEND      CLOUDY    63  61  94 CALM      30.09S
JUNEAU         FOG       61  61 100 CALM      30.10S VSB 1/2
$$

LSZ147-162-301600-
LAKE SUPERIOR

STATION/POSITION TIME  TEMP    WIND        PRES    WAVE
                       AIR SEA DIR/SP/G            HT/PER
                 (UTC) (F)     (DEG/KT/KT) (MB)    (FT/S)
W MID LAKE BUOY  1350   58 54  200/ 12/ 14 1013.7F   1/ 4
DEVILS ISLAND    1400   64     220/  7/  9 1013.8F
PORT WING        1440   69     210/ 10/ 14 1013.9F
SAXON HARBOR     1440   70     200/ 10/ 16 1013.9F
$$

LMZ867-665-643>646-301600-
LAKE MICHIGAN

STATION/POSITION TIME  TEMP    WIND        PRES    WAVE
                       AIR SEA DIR/SP/G            HT/PER
                 (UTC) (F)     (DEG/KT/KT) (MB)    (FT/S)
CHAMBERS ISLAND  1400   61     180/  4/  8 1017.6S
S GREEN BAY BUOY 1430   61 62  190/  8/  8 1019.3F
N MID LAKE BUOY  1350   63 65  200/ 10/ 10 1017.4S   0
NORTHPORT PIER   1400   65     180/  3/  7 1017.6S
SISTER BAY       1419   69     180/  7/  8   N/A
ALGOMA LAKESHORE 1314             CALM       N/A
SHEBOYGAN LAKESH 1400   51      50/  4/  4 1019.3R
PORT WASHINGTON  1400   59      40/  1/  2 1019.6
ATWATER BUOY     1400   55 49  350/  4/  4 1020.0R
MILWAUKEE LAKESH 1400   61      50/  3/  3   N/A
S MID LAKE BUOY  1350   67 68  350/  8/  8 1017.9R   1
KENOSHA   LAKESH 1400   59     360/  4/  5 1018.6R
$$

TC  - TEMPERATURE IN CELSIUS
VSB - VISIBILITY IN STATUTE MILES
WCI - WIND CHILL INDEX
HX  - HEAT INDEX



USA.gov is the U.S. government's official web portal to all federal, state and local government web resources and services.